Weather reports worldwide

Advertisment
Lefkopa, Cyprus (17515): temperature & dewpoint: 20.03.2019 21:00:00 - 26.03.2019 21:00:00 (EET)Lefkopa, Cyprus (17515): wind speed: 20.03.2019 21:00:00 - 26.03.2019 21:00:00 (EET)Lefkopa, Cyprus (17515): wind direction: 20.03.2019 21:00:00 - 26.03.2019 21:00:00 (EET)Lefkopa, Cyprus (17515): reduced air pressure: 20.03.2019 21:00:00 - 26.03.2019 21:00:00 (EET)Lefkopa, Cyprus (17515): visibility: 20.03.2019 21:00:00 - 26.03.2019 21:00:00 (EET)
Date & Time tt [°C] td [°C] ff [km/h] ff [kn] dd ppp [hPa] vv [km]
26.03.2019 21:00:00 10,3 7,6 0 0 N 1016,3 10
26.03.2019 20:00:00 13,6 7,7 0 0 N 1015,6 10
26.03.2019 19:00:00 13,5 7,5 5 3 WNW 1014,3 10
26.03.2019 18:00:00 15,1 7,0 0 0 N 1014,1 10
26.03.2019 17:00:00 16,0 6,4 13 7 NW 1013,5 10
26.03.2019 16:00:00 16,8 6,4 15 8 NW 1012,8 10
26.03.2019 15:00:00 20,4 3,0 13 7 ENE 1011,9 10
26.03.2019 14:00:00 20,5 1,5 13 7 NE 1012,1 10
26.03.2019 13:00:00 20,6 1,8 8 4 E 1012,2 10
26.03.2019 12:00:00 19,9 1,5 8 4 SE 1012,3 10
26.03.2019 11:00:00 19,5 0,6 0 0 N 1012,7 10
26.03.2019 10:00:00 16,1 4,3 0 0 N 1012,9 10
26.03.2019 09:00:00 12,3 2,8 0 0 N 1012,7 10
26.03.2019 08:00:00 9,1 2,3 0 0 N 1012,5 10
26.03.2019 07:00:00 6,2 2,0 0 0 N 1012,4 10
26.03.2019 06:00:00 3,8 0,7 0 0 N 1012,2 10
26.03.2019 05:00:00 5,9 1,0 0 0 N 1011,6 10
26.03.2019 04:00:00 5,7 1,1 0 0 N 1011,1 10
26.03.2019 03:00:00 5,8 1,2 0 0 N 1010,8 10
26.03.2019 02:00:00 6,9 2,3 5 3 WSW 1010,6 10
26.03.2019 01:00:00 6,9 2,1 9 5 WSW 1010,6 10
26.03.2019 00:00:00 7,6 2,5 0 0 N 1010,0 10
25.03.2019 23:00:00 8,1 2,4 0 0 N 1010,0 10
25.03.2019 22:00:00 8,2 2,2 0 0 N 1009,4 10
25.03.2019 21:00:00 9,0 2,2 0 0 N 1008,8 10
25.03.2019 20:00:00 10,2 2,1 8 4 SSW 1008,3 10
25.03.2019 19:00:00 11,1 2,2 13 7 SW 1007,6 10
25.03.2019 18:00:00 13,1 0,5 11 6 SW 1007,1 10
25.03.2019 17:00:00 15,0 -0,6 21 11 WSW 1006,4 10
25.03.2019 16:00:00 15,7 -3,2 15 8 WSW 1006,3 10
25.03.2019 15:00:00 17,1 -7,1 21 11 W 1005,9 10
25.03.2019 14:00:00 16,9 -3,4 11 6 SW 1006,3 10
25.03.2019 13:00:00 15,9 -6,0 18 10 WNW 1006,9 10
25.03.2019 12:00:00 14,8 -4,7 24 13 W 1007,3 10
25.03.2019 11:00:00 14,2 -2,3 18 10 NW 1007,7 10
25.03.2019 10:00:00 13,5 -3,1 18 10 WNW 1007,8 10
25.03.2019 09:00:00 12,3 -4,4 15 8 NW 1007,9 10
25.03.2019 08:00:00 11,6 -3,6 34 18 NW 1007,6 10
25.03.2019 07:00:00 10,1 -2,9 29 16 NNW 1007,4 10
25.03.2019 06:00:00 9,8 -2,7 31 17 NW 1006,8 10
25.03.2019 05:00:00 9,8 -2,5 24 13 NNW 1006,7 10
25.03.2019 04:00:00 10,1 -2,6 26 14 NW 1006,0 10
25.03.2019 03:00:00 10,6 -2,6 26 14 NW 1006,3 10
25.03.2019 02:00:00 10,9 -3,2 34 18 NW 1006,6 10
25.03.2019 01:00:00 11,1 -3,4 22 12 NW 1006,5 10
25.03.2019 00:00:00 11,3 -3,1 34 18 NW 1006,8 10
24.03.2019 23:00:00 11,8 -3,4 34 18 NW 1007,1 10
24.03.2019 22:00:00 12,2 -4,3 37 20 NW 1007,0 10
24.03.2019 21:00:00 12,7 -4,8 61 33 NW 1007,2 10
24.03.2019 20:00:00 13,5 -1,0 21 11 NW 1006,9 10
24.03.2019 19:00:00 13,5 1,9 0 0 N 1006,6 10
24.03.2019 18:00:00 14,3 1,1 15 8 NNW 1006,4 10
24.03.2019 17:00:00 15,3 -3,4 13 7 NW 1006,0 10
24.03.2019 16:00:00 15,9 -1,6 21 11 NW 1005,7 10
24.03.2019 15:00:00 15,9 -1,8 34 18 NNW 1006,0 10
24.03.2019 14:00:00 15,6 -1,2 18 10 NW 1006,0 10
24.03.2019 13:00:00 15,6 -1,2 21 11 NW 1006,3 10
24.03.2019 12:00:00 15,0 0,4 18 10 NW 1006,8 10
24.03.2019 11:00:00 14,1 1,0 15 8 NNW 1007,3 10
24.03.2019 10:00:00 13,3 0,3 28 15 NNW 1007,4 10
24.03.2019 09:00:00 14,1 0,2 28 15 NW 1007,3 10
24.03.2019 08:00:00 - - - - - - -
24.03.2019 07:00:00 12,9 0,5 34 18 NW 1007,2 10
24.03.2019 06:00:00 12,6 1,1 29 16 NNW 1007,2 10
24.03.2019 05:00:00 11,2 7,8 9 5 SW 1008,2 10
24.03.2019 04:00:00 11,2 7,9 9 5 SSW 1008,1 10
24.03.2019 03:00:00 11,2 8,8 8 4 SSW 1009,0 10
24.03.2019 02:00:00 10,5 8,2 0 0 N 1009,3 10
24.03.2019 01:00:00 10,5 7,6 0 0 N 1009,0 10
24.03.2019 00:00:00 10,6 7,0 0 0 N 1010,1 10
23.03.2019 23:00:00 11,4 6,7 0 0 N 1011,0 10
23.03.2019 22:00:00 11,9 6,4 0 0 N 1011,6 10
23.03.2019 21:00:00 12,4 6,6 0 0 N 1012,0 10
23.03.2019 20:00:00 14,3 6,1 0 0 N 1012,0 10
23.03.2019 19:00:00 15,3 6,7 8 4 WSW 1012,1 10
23.03.2019 18:00:00 17,7 5,0 8 4 SSW 1012,1 10
23.03.2019 17:00:00 20,0 0,9 11 6 WSW 1012,2 10
23.03.2019 16:00:00 21,1 1,2 11 6 WSW 1012,5 10
23.03.2019 15:00:00 21,9 1,2 8 4 W 1012,8 10
23.03.2019 14:00:00 21,9 1,1 11 6 WNW 1013,1 10
23.03.2019 13:00:00 - - - - - - -
23.03.2019 12:00:00 - - - - - - -
23.03.2019 11:00:00 22,8 2,6 0 0 N 1014,9 10
23.03.2019 10:00:00 21,0 2,7 0 0 N 1016,0 10
23.03.2019 09:00:00 15,1 5,2 0 0 N 1016,7 10
23.03.2019 08:00:00 13,7 5,3 0 0 N 1016,6 10
23.03.2019 07:00:00 10,7 4,5 8 4 S 1016,6 10
23.03.2019 06:00:00 10,0 4,1 0 0 N 1016,7 10
23.03.2019 05:00:00 10,0 5,5 9 5 W 1017,0 10
23.03.2019 04:00:00 10,4 5,6 9 5 SSW 1016,9 10
23.03.2019 03:00:00 10,3 5,5 0 0 N 1017,4 10
23.03.2019 02:00:00 10,5 6,7 5 3 S 1018,2 10
23.03.2019 01:00:00 10,2 6,7 8 4 SSW 1018,4 10
23.03.2019 00:00:00 11,7 7,3 0 0 N 1018,3 10
22.03.2019 23:00:00 12,1 8,2 0 0 N 1018,2 10
22.03.2019 22:00:00 12,6 8,8 5 3 WSW 1018,3 10
22.03.2019 21:00:00 11,0 8,3 0 0 N 1018,3 10
22.03.2019 20:00:00 12,6 8,5 8 4 NNW 1018,2 10
22.03.2019 19:00:00 14,5 9,6 9 5 N 1017,7 10
22.03.2019 18:00:00 19,5 8,4 15 8 E 1017,0 10
22.03.2019 17:00:00 21,9 -1,5 0 0 N 1016,8 10
22.03.2019 16:00:00 22,6 2,0 18 10 NNW 1016,9 10
22.03.2019 15:00:00 23,0 1,8 8 4 NNW 1016,9 10
22.03.2019 14:00:00 23,9 3,3 0 0 N 1017,4 10
22.03.2019 13:00:00 23,6 1,4 0 0 N 1018,1 10
22.03.2019 12:00:00 23,2 2,3 8 4 NNE 1018,4 10
22.03.2019 11:00:00 22,1 3,4 0 0 N 1019,0 10
22.03.2019 10:00:00 20,8 3,0 0 0 N 1019,5 10
22.03.2019 09:00:00 15,8 5,5 11 6 SW 1019,6 10
22.03.2019 08:00:00 12,3 5,3 8 4 SW 1019,7 10
22.03.2019 07:00:00 10,3 5,6 0 0 N 1019,5 10
22.03.2019 06:00:00 9,2 5,6 0 0 N 1019,4 10
22.03.2019 05:00:00 10,2 6,2 5 3 SSW 1019,1 10
22.03.2019 04:00:00 10,7 7,0 0 0 N 1018,8 10
22.03.2019 03:00:00 11,3 7,9 8 4 W 1018,9 10
22.03.2019 02:00:00 10,9 9,2 5 3 S 1019,3 10
22.03.2019 01:00:00 11,4 10,1 9 5 SSW 1019,2 10
22.03.2019 00:00:00 12,4 11,1 9 5 SSW 1019,2 10
21.03.2019 23:00:00 13,2 12,2 8 4 SW 1018,9 10
21.03.2019 22:00:00 13,6 12,2 9 5 SSW 1019,1 10
21.03.2019 21:00:00 14,1 12,3 9 5 SW 1018,9 10
21.03.2019 20:00:00 14,8 13,0 8 4 SSW 1018,3 10
21.03.2019 19:00:00 16,0 13,4 5 3 SSW 1017,7 10
21.03.2019 18:00:00 17,4 13,7 13 7 SSW 1017,3 10
21.03.2019 17:00:00 20,2 13,5 11 6 S 1016,9 10
21.03.2019 16:00:00 21,6 4,1 11 6 NW 1016,5 10
21.03.2019 15:00:00 23,6 5,1 15 8 NW 1016,5 10
21.03.2019 14:00:00 24,8 5,0 0 0 N 1016,9 10
21.03.2019 13:00:00 24,6 5,3 0 0 N 1017,5 10
21.03.2019 12:00:00 22,5 6,2 5 3 NW 1018,1 10
21.03.2019 11:00:00 22,2 7,3 0 0 N 1018,5 10
21.03.2019 10:00:00 18,6 12,3 0 0 N 1018,8 10
21.03.2019 09:00:00 13,0 12,1 0 0 N 1019,1 3,0
21.03.2019 08:00:00 11,7 10,9 9 5 SW 1019,0 3,0
21.03.2019 07:00:00 10,5 9,6 0 0 N 1018,7 0,1
21.03.2019 06:00:00 11,2 10,3 5 3 SW 1018,3 8
21.03.2019 05:00:00 11,3 10,4 13 7 SW 1018,2 1,0
21.03.2019 04:00:00 11,7 10,7 9 5 SSW 1018,0 1,0
21.03.2019 03:00:00 - - - - - - -
21.03.2019 02:00:00 11,4 10,4 0 0 N 1018,9 0,5
21.03.2019 01:00:00 11,6 10,3 8 4 WSW 1019,0 0,5
21.03.2019 00:00:00 12,3 11,0 0 0 N 1019,0 0,5
20.03.2019 23:00:00 12,2 10,7 5 3 SW 1019,1 0,5
20.03.2019 22:00:00 13,1 11,5 8 4 SW 1019,1 7
20.03.2019 21:00:00 13,3 11,6 0 0 N 1019,2 10

tt = temperature
td = dewpoint
ff = wind speed
dd = wind direction
ppp = reduced air pressure
vv = visibility

Next stations